FLOCK 2K-14 (42892 NORAD) Tracking and Keplerian Element Data

This shows tracking and keplerian element data for the satellite.

Feedback or suggestion? Click here.




ElementValue
Catalog42892
NameFLOCK 2K-14
Epoch Orbit15570
Epoch Day114.59552738
Epoch Year2020
RAAN346.1022
Inclination96.8996
Eccentricity0.0011282
Argument of Perigee148.0425
Mean Anonmoly212.151
Mean Motion15.42667574
Decay Rate5.895E-05
L11 42892U 17042BV 20114.59552738 .00005895 00000-0 13681-3 0 9990
L22 42892 96.8996 346.1022 0011282 148.0425 212.1510 15.42667574155707

Live tracking and technical data element details for FLOCK 2K-14 (NORAD 42892). FLOCK 2K-14 can be tracked NOW for your location showing map with azimuth and elevation plus other details from your city location.

Track the satellite on the map from your city or location and see movement details for azimuth, elevation, latitude, longitude, range, height, and movement on the map or in text.







IsCatalogInMostPopularTable: catalog: 42892, numindb: 598
Update: records affected: 1



GetName: 42892 FLOCK 2K-14

Hit Count: updated at: Mon, 27 Sep 2021 01:29:03 GMT